K2NV Weather Reports


time (UTC)temp
C
wind
direction
speed
KPH
gust
KPH
rain 1hr
cm
rain 24hr
cm
rain mn
cm
humidity
%
barometer
mb
20260505041417 16 232 19.3 27.4 0.00 0.00 0.00 71 1000.9
20260505040917 17 242 19.3 29.0 0.00 0.00 0.00 71 1000.9
20260505040418 17 231 22.5 37.0 0.00 0.00 0.00 71 1000.8
20260505035917 16 232 20.9 33.8 0.00 0.00 0.00 72 1000.7
20260505035417 16 232 14.5 32.2 0.00 0.00 0.00 73 1000.8
20260505034917 15 198 19.3 24.1 0.00 0.00 0.00 74 1000.6
20260505034416 15 200 22.5 32.2 0.00 0.00 0.00 76 1000.6
20260505033917 14 183 8.0 12.9 0.00 0.00 0.00 76 1000.5
20260505033418 14 184 8.0 12.9 0.00 0.00 0.00 76 1000.4
20260505032917 14 187 8.0 11.3 0.00 0.00 0.00 75 1000.5
20260505032418 14 180 9.7 14.5 0.00 0.00 0.00 75 1000.5
20260505031916 14 183 11.3 14.5 0.00 0.00 0.00 74 1000.6
20260505031418 14 179 9.7 11.3 0.00 0.00 0.00 74 1000.6
20260505030917 14 190 8.0 11.3 0.00 0.00 0.00 74 1000.7
20260505030417 14 194 11.3 14.5 0.00 0.00 0.00 73 1000.7
20260505025916 15 186 9.7 16.1 0.00 0.00 0.00 73 1000.7
20260505025417 15 189 11.3 16.1 0.00 0.00 0.00 72 1000.9
20260505024919 15 210 11.3 20.9 0.00 0.00 0.00 72 1000.9
20260505024418 15 204 12.9 14.5 0.00 0.00 0.00 72 1001.0
20260505023917 15 211 12.9 20.9 0.00 0.00 0.00 73 1001.0
20260505023418 15 208 14.5 19.3 0.00 0.00 0.00 73 1001.0
20260505022917 15 197 12.9 16.1 0.00 0.00 0.00 74 1001.1
20260505022416 14 204 11.3 14.5 0.00 0.00 0.00 74 1001.2
20260505021917 14 221 9.7 11.3 0.00 0.00 0.00 73 1001.2
20260505021418 14 209 8.0 19.3 0.00 0.00 0.00 71 1001.1
20260505020917 15 207 11.3 14.5 0.00 0.00 0.00 70 1001.2
20260505020417 15 185 12.9 16.1 0.00 0.00 0.00 68 1001.1
20260505015917 15 184 12.9 22.5 0.00 0.00 0.00 64 1001.1
20260505015416 15 193 12.9 16.1 0.00 0.00 0.00 62 1001.5
20260505014918 15 216 11.3 19.3 0.00 0.00 0.00 60 1001.3
20260505014417 16 185 11.3 19.3 0.00 0.00 0.00 59 1001.0
20260505013916 16 179 9.7 12.9 0.00 0.00 0.00 58 1000.8
20260505013417 16 178 9.7 12.9 0.00 0.00 0.00 57 1000.9
20260505012917 16 190 9.7 12.9 0.00 0.00 0.00 56 1000.8
20260505012418 17 196 8.0 16.1 0.00 0.00 0.00 56 1000.8
20260505011919 17 170 8.0 9.7 0.00 0.00 0.00 55 1000.9
20260505011417 17 186 4.8 11.3 0.00 0.00 0.00 54 1000.9
20260505010918 17 171 8.0 11.3 0.00 0.00 0.00 54 1000.9
20260505010417 17 193 8.0 11.3 0.00 0.00 0.00 53 1000.9
20260505005916 17 192 8.0 11.3 0.00 0.00 0.00 53 1000.9
20260505005418 17 185 3.2 4.8 0.00 0.00 0.00 52 1000.8
20260505004916 17 191 4.8 8.0 0.00 0.00 0.00 53 1000.7
20260505003917 17 226 9.7 11.3 0.00 0.00 0.00 51 1000.7
20260505003416 18 212 4.8 9.7 0.00 0.00 0.00 51 1000.7
20260505002417 18 223 8.0 9.7 0.00 0.00 0.00 49 1000.9
20260505001916 18 231 9.7 12.9 0.00 0.00 0.00 49 1000.9
20260505000917 19 232 9.7 9.7 0.00 0.00 0.00 47 1000.9
20260505000416 19 234 9.7 16.1 0.00 0.00 0.00 47 1000.9
20260504235417 20 242 9.7 14.5 0.00 0.00 0.00 45 1001.0
20260504234918 20 226 11.3 22.5 0.00 0.00 0.00 45 1000.9
20260504234421 20 248 14.5 24.1 0.00 0.00 0.00 44 1001.0
20260504233916 20 237 14.5 19.3 0.00 0.00 0.00 44 1001.0
20260504233418 20 246 16.1 22.5 0.00 0.00 0.00 44 1001.1
20260504232417 20 239 14.5 22.5 0.00 0.00 0.00 44 1001.1
20260504231918 20 263 12.9 19.3 0.00 0.00 0.00 44 1001.1
20260504231417 20 240 12.9 24.1 0.00 0.00 0.00 44 1001.1
20260504230416 21 255 19.3 25.7 0.00 0.00 0.00 42 1001.2
20260504225417 21 257 16.1 22.5 0.00 0.00 0.00 43 1001.3
20260504224918 21 251 14.5 20.9 0.00 0.00 0.00 45 1001.3
20260504223916 20 245 19.3 25.7 0.00 0.00 0.00 46 1001.4
20260504222918 20 251 14.5 24.1 0.00 0.00 0.00 50 1001.4
20260504222417 20 249 11.3 25.7 0.00 0.00 0.00 49 1001.3
20260504221918 20 248 19.3 24.1 0.00 0.00 0.00 49 1001.4
20260504221418 20 242 19.3 32.2 0.00 0.00 0.00 48 1001.3
20260504220917 20 247 16.1 32.2 0.00 0.00 0.00 49 1001.3
20260504220416 20 253 20.9 32.2 0.00 0.00 0.00 49 1001.3
20260504215919 20 244 16.1 24.1 0.00 0.00 0.00 49 1001.3
20260504215416 20 237 20.9 27.4 0.00 0.00 0.00 48 1001.4
20260504214919 21 236 22.5 33.8 0.00 0.00 0.00 47 1001.3
20260504214418 21 254 22.5 32.2 0.00 0.00 0.00 46 1001.4
20260504213918 21 251 24.1 37.0 0.00 0.00 0.00 43 1001.3
20260504213417 21 261 14.5 29.0 0.00 0.00 0.00 44 1001.3
20260504212919 21 242 24.1 37.0 0.00 0.00 0.00 46 1001.3
20260504212417 21 242 12.9 19.3 0.00 0.00 0.00 47 1001.3
20260504211918 21 242 19.3 29.0 0.00 0.00 0.00 47 1001.2
20260504211418 21 250 14.5 25.7 0.00 0.00 0.00 46 1001.2
20260504210918 21 239 22.5 32.2 0.00 0.00 0.00 46 1001.3
20260504210417 21 238 20.9 29.0 0.00 0.00 0.00 46 1001.3
20260504205916 21 250 22.5 33.8 0.00 0.00 0.00 46 1001.4
20260504205417 21 236 22.5 37.0 0.00 0.00 0.00 46 1001.3
20260504204917 21 231 16.1 25.7 0.00 0.00 0.00 47 1001.4
20260504204418 21 242 20.9 37.0 0.00 0.00 0.00 47 1001.4
20260504203921 21 227 20.9 32.2 0.00 0.00 0.00 48 1001.6
20260504203416 21 249 22.5 32.2 0.00 0.00 0.00 47 1001.6
20260504202918 21 237 16.1 29.0 0.00 0.00 0.00 47 1001.7
20260504202418 21 241 19.3 40.2 0.00 0.00 0.00 48 1001.8
20260504201917 21 240 22.5 32.2 0.00 0.00 0.00 48 1001.9
20260504201420 21 226 14.5 25.7 0.00 0.00 0.00 50 1001.9
20260504200917 21 220 19.3 25.7 0.00 0.00 0.00 49 1001.8
20260504200417 21 206 16.1 29.0 0.00 0.00 0.00 51 1001.9
20260504195917 21 215 14.5 20.9 0.00 0.00 0.00 52 1001.9
20260504195418 20 213 12.9 19.3 0.00 0.00 0.00 51 1002.0
20260504194917 20 222 16.1 24.1 0.00 0.00 0.00 50 1002.1
20260504194418 20 232 19.3 25.7 0.00 0.00 0.00 51 1002.2
20260504193917 20 241 16.1 29.0 0.00 0.00 0.00 52 1002.3
20260504193417 20 227 20.9 24.1 0.00 0.00 0.00 51 1002.4
20260504192918 20 242 16.1 32.2 0.00 0.00 0.00 52 1002.6
20260504192417 21 228 14.5 20.9 0.00 0.00 0.00 52 1002.6
20260504191916 20 222 12.9 16.1 0.00 0.00 0.00 52 1002.6
20260504191417 20 231 20.9 24.1 0.00 0.00 0.00 53 1002.8
20260504190917 20 220 14.5 20.9 0.00 0.00 0.00 52 1002.8
20260504190418 20 216 16.1 24.1 0.00 0.00 0.00 53 1002.9
20260504185918 20 208 16.1 24.1 0.00 0.00 0.00 53 1003.0
20260504185417 20 212 20.9 27.4 0.00 0.00 0.00 54 1003.0
20260504184917 20 238 22.5 33.8 0.00 0.00 0.00 52 1003.1
20260504184418 20 226 19.3 37.0 0.00 0.00 0.00 54 1003.2
20260504183917 20 226 22.5 25.7 0.00 0.00 0.00 53 1003.1
20260504183416 20 205 20.9 29.0 0.00 0.00 0.00 55 1003.2
20260504182917 20 226 14.5 24.1 0.00 0.00 0.00 56 1003.3
20260504182417 20 237 14.5 20.9 0.00 0.00 0.00 56 1003.4
20260504181918 19 228 20.9 24.1 0.00 0.00 0.00 55 1003.5
20260504181417 19 233 22.5 33.8 0.00 0.00 0.00 55 1003.6
20260504180916 19 217 19.3 29.0 0.00 0.00 0.00 57 1003.6
20260504180418 18 228 12.9 16.1 0.00 0.00 0.00 58 1003.7
20260504175917 18 229 19.3 22.5 0.00 0.00 0.00 58 1003.7
20260504175418 18 228 20.9 27.4 0.00 0.00 0.00 59 1003.9
20260504174917 18 245 25.7 35.4 0.00 0.00 0.00 58 1004.0
20260504174417 18 246 20.9 35.4 0.00 0.00 0.00 58 1004.2
20260504173918 18 247 27.4 46.7 0.00 0.00 0.00 57 1004.2
20260504173417 18 252 20.9 32.2 0.00 0.00 0.00 58 1004.3
20260504172916 17 231 19.3 27.4 0.00 0.00 0.00 59 1004.3
20260504172418 17 240 22.5 38.6 0.00 0.00 0.00 60 1004.4
20260504171921 17 252 27.4 37.0 0.00 0.00 0.00 58 1004.4
20260504171417 17 252 22.5 33.8 0.00 0.00 0.00 59 1004.5
20260504170918 17 231 19.3 35.4 0.00 0.00 0.00 59 1004.6
20260504170418 17 233 22.5 38.6 0.00 0.00 0.00 59 1004.6
20260504160418 16 230 27.4 40.2 0.00 0.00 0.00 59 1005.0
20260504150917 16 239 24.1 38.6 0.00 0.00 0.00 61 1005.1
20260504150416 16 250 29.0 45.1 0.00 0.00 0.00 59 1005.1
20260504140917 14 230 25.7 37.0 0.00 0.00 0.00 62 1005.1
20260504140417 14 249 20.9 25.7 0.00 0.00 0.00 61 1005.0
20260504130416 13 235 20.9 40.2 0.00 0.00 0.00 64 1005.3
20260504110416 10 221 11.3 20.9 0.00 0.00 0.00 70 1005.9
20260504100415 10 241 11.3 19.3 0.00 0.00 0.00 68 1005.5
20260504081917 9 218 12.9 16.1 0.00 0.00 0.00 71 1006.3
20260504081416 9 229 11.3 14.5 0.00 0.00 0.00 71 1006.4
20260504080916 9 218 9.7 19.3 0.00 0.00 0.00 71 1006.5
20260504080418 9 231 12.9 16.1 0.00 0.00 0.00 71 1006.6
20260504050416 10 247 16.1 29.0 0.00 0.00 0.00 73 1007.9
20260504045916 10 250 16.1 25.7 0.00 0.00 0.00 72 1007.8
20260504045418 10 241 16.1 27.4 0.00 0.00 0.00 71 1008.0
20260504044918 10 247 22.5 33.8 0.00 0.00 0.00 71 1008.0
20260504044416 10 251 19.3 27.4 0.00 0.00 0.00 70 1008.1
20260504043916 10 247 19.3 27.4 0.00 0.00 0.00 70 1008.1
20260504043417 10 256 19.3 24.1 0.00 0.00 0.00 69 1008.1
20260504042917 11 242 16.1 24.1 0.00 0.00 0.00 68 1008.1
20260504042416 11 242 14.5 32.2 0.00 0.00 0.00 67 1008.1
20260504041917 11 244 19.3 20.9 0.00 0.00 0.00 66 1008.0